"Sample Date","Sample Time","Sensor Name","Sample Value","Units","Flow Rate","Sample Interval","Sample Volume","Laser Status","Number Channels","Micron Size 0","Counts/Channel 0","Micron Size 1","Counts/Channel 1","Micron Size 2","Counts/Channel 2","Micron Size 3","Counts/Channel 3","Micron Size 4","Counts/Channel 4","Micron Size 5","Counts/Channel 5","Micron Size 6","Counts/Channel 6","Micron Size 7","Counts/Channel 7","Micron Size 8","Counts/Channel 8","Micron Size 9","Counts/Channel 9","Micron Size 10","Counts/Channel 10","Micron Size 11","Counts/Channel 11","Micron Size 12","Counts/Channel 12","Micron Size 13","Counts/Channel 13","Micron Size 14","Counts/Channel 14","Micron Size 15","Counts/Channel 15","Micron Size 16","Counts/Channel 16","Micron Size 17","Counts/Channel 17","Micron Size 18","Counts/Channel 18","Micron Size 19","Counts/Channel 19","Micron Size 20","Counts/Channel 20","Micron Size 21","Counts/Channel 21","Micron Size 22","Counts/Channel 22","Micron Size 23","Counts/Channel 23","Micron Size 24","Counts/Channel 24","Micron Size 25","Counts/Channel 25","Micron Size 26","Counts/Channel 26","Micron Size 27","Counts/Channel 27","Micron Size 28","Counts/Channel 28","Micron Size 29","Counts/Channel 29","Micron Size 30","Counts/Channel 30","Micron Size 31","Counts/Channel 31"
"07/02/06","20:00:01","AMMA06",77562.000,"cc",28270.272,6.00,2827.027,1,6,0.100,44206.000,0.200,26112.000,0.300,4576.000,0.500,1663.000,1.000,1005.000,5.000,0
"07/02/06","20:00:07","AMMA06",77430.000,"cc",28320.522,6.00,2832.052,1,6,0.100,44310.000,0.200,25891.000,0.300,4515.000,0.500,1725.000,1.000,988.000,5.000,1.000
"07/02/06","20:00:13","AMMA06",78239.000,"cc",28351.016,6.00,2835.102,1,6,0.100,44326.000,0.200,26644.000,0.300,4590.000,0.500,1717.000,1.000,962.000,5.000,0
"07/02/06","20:00:19","AMMA06",77798.000,"cc",28282.207,6.00,2828.221,1,6,0.100,44367.000,0.200,26185.000,0.300,4556.000,0.500,1689.000,1.000,1001.000,5.000,0
"07/02/06","20:00:25","AMMA06",77238.000,"cc",28314.633,6.00,2831.463,1,6,0.100,44116.000,0.200,25778.000,0.300,4687.000,0.500,1627.000,1.000,1030.000,5.000,0
"07/02/06","20:00:31","AMMA06",76795.000,"cc",28319.893,6.00,2831.990,1,6,0.100,43936.000,0.200,25744.000,0.300,4449.000,0.500,1624.000,1.000,1042.000,5.000,0
"07/02/06","20:00:37","AMMA06",77063.000,"cc",28330.352,6.00,2833.035,1,6,0.100,44161.000,0.200,25716.000,0.300,4611.000,0.500,1569.000,1.000,1006.000,5.000,0
"07/02/06","20:00:43","AMMA06",77035.000,"cc",28306.498,6.00,2830.650,1,6,0.100,44258.000,0.200,25645.000,0.300,4427.000,0.500,1634.000,1.000,1069.000,5.000,2.000
"07/02/06","20:00:49","AMMA06",76974.000,"cc",28277.662,6.00,2827.766,1,6,0.100,43994.000,0.200,25673.000,0.300,4557.000,0.500,1687.000,1.000,1063.000,5.000,0
"07/02/06","20:00:55","AMMA06",77177.000,"cc",28346.793,6.00,2834.679,1,6,0.100,43995.000,0.200,26162.000,0.300,4293.000,0.500,1631.000,1.000,1094.000,5.000,2.000
"07/02/06","20:01:01","AMMA06",77090.000,"cc",28332.178,6.00,2833.218,1,6,0.100,44141.000,0.200,25791.000,0.300,4502.000,0.500,1674.000,1.000,982.000,5.000,0
"07/02/06","20:01:07","AMMA06",76827.000,"cc",28344.981,6.00,2834.498,1,6,0.100,44008.000,0.200,25524.000,0.300,4593.000,0.500,1632.000,1.000,1070.000,5.000,0
"07/02/06","20:01:13","AMMA06",76832.000,"cc",28322.113,6.00,2832.211,1,6,0.100,43850.000,0.200,25731.000,0.300,4559.000,0.500,1679.000,1.000,1013.000,5.000,0
"07/02/06","20:01:19","AMMA06",77229.000,"cc",28297.227,6.00,2829.723,1,6,0.100,44483.000,0.200,25631.000,0.300,4385.000,0.500,1675.000,1.000,1053.000,5.000,2.000
"07/02/06","20:01:25","AMMA06",76767.000,"cc",28355.906,6.00,2835.591,1,6,0.100,43723.000,0.200,25812.000,0.300,4544.000,0.500,1649.000,1.000,1038.000,5.000,1.000
"07/02/06","20:01:31","AMMA06",77055.000,"cc",28318.309,6.00,2831.831,1,6,0.100,44150.000,0.200,25787.000,0.300,4464.000,0.500,1672.000,1.000,981.000,5.000,1.000
"07/02/06","20:01:37","AMMA06",77058.000,"cc",28313.051,6.00,2831.305,1,6,0.100,44319.000,0.200,25568.000,0.300,4471.000,0.500,1630.000,1.000,1069.000,5.000,1.000
"07/02/06","20:01:44","AMMA06",77280.000,"cc",28360.361,6.00,2836.036,1,6,0.100,44174.000,0.200,25889.000,0.300,4559.000,0.500,1663.000,1.000,994.000,5.000,1.000
"07/02/06","20:01:50","AMMA06",77637.000,"cc",28283.221,6.00,2828.322,1,6,0.100,44201.000,0.200,26277.000,0.300,4549.000,0.500,1610.000,1.000,1000.000,5.000,0
"07/02/06","20:01:56","AMMA06",77375.000,"cc",28280.545,6.00,2828.055,1,6,0.100,44149.000,0.200,25956.000,0.300,4561.000,0.500,1636.000,1.000,1071.000,5.000,2.000
"07/02/06","20:02:02","AMMA06",77563.000,"cc",28367.641,6.00,2836.764,1,6,0.100,44026.000,0.200,26243.000,0.300,4613.000,0.500,1642.000,1.000,1039.000,5.000,0
"07/02/06","20:02:08","AMMA06",77758.000,"cc",28320.494,6.00,2832.050,1,6,0.100,44004.000,0.200,26260.000,0.300,4749.000,0.500,1656.000,1.000,1088.000,5.000,1.000
"07/02/06","20:02:14","AMMA06",77964.000,"cc",28310.928,6.00,2831.093,1,6,0.100,44156.000,0.200,26553.000,0.300,4590.000,0.500,1645.000,1.000,1019.000,5.000,1.000
"07/02/06","20:02:20","AMMA06",77390.000,"cc",28326.498,6.00,2832.650,1,6,0.100,44199.000,0.200,26229.000,0.300,4324.000,0.500,1612.000,1.000,1025.000,5.000,1.000
"07/02/06","20:02:26","AMMA06",77545.000,"cc",28306.393,6.00,2830.639,1,6,0.100,44058.000,0.200,26142.000,0.300,4597.000,0.500,1737.000,1.000,1010.000,5.000,1.000
"07/02/06","20:02:32","AMMA06",77697.000,"cc",28302.643,6.00,2830.264,1,6,0.100,43942.000,0.200,26410.000,0.300,4654.000,0.500,1628.000,1.000,1063.000,5.000,0
"07/02/06","20:02:38","AMMA06",77779.000,"cc",28347.164,6.00,2834.717,1,6,0.100,44237.000,0.200,26238.000,0.300,4625.000,0.500,1623.000,1.000,1054.000,5.000,2.000
"07/02/06","20:02:44","AMMA06",77413.000,"cc",28254.205,6.00,2825.421,1,6,0.100,43993.000,0.200,26235.000,0.300,4504.000,0.500,1642.000,1.000,1038.000,5.000,1.000
"07/02/06","20:02:50","AMMA06",77663.000,"cc",28318.201,6.00,2831.820,1,6,0.100,44294.000,0.200,26165.000,0.300,4536.000,0.500,1641.000,1.000,1025.000,5.000,2.000
"07/02/06","20:02:56","AMMA06",77974.000,"cc",28294.854,6.00,2829.486,1,6,0.100,44347.000,0.200,26223.000,0.300,4714.000,0.500,1621.000,1.000,1069.000,5.000,0
"07/02/06","20:03:02","AMMA06",78015.000,"cc",28281.705,6.00,2828.171,1,6,0.100,44413.000,0.200,26086.000,0.300,4774.000,0.500,1673.000,1.000,1068.000,5.000,1.000
"07/02/06","20:03:08","AMMA06",77927.000,"cc",28344.525,6.00,2834.453,1,6,0.100,44383.000,0.200,26262.000,0.300,4636.000,0.500,1636.000,1.000,1010.000,5.000,0
"07/02/06","20:03:14","AMMA06",77565.000,"cc",28371.645,6.00,2837.165,1,6,0.100,44329.000,0.200,26029.000,0.300,4539.000,0.500,1668.000,1.000,999.000,5.000,1.000
"07/02/06","20:03:20","AMMA06",77573.000,"cc",28291.123,6.00,2829.113,1,6,0.100,44229.000,0.200,25983.000,0.300,4600.000,0.500,1716.000,1.000,1044.000,5.000,1.000
"07/02/06","20:03:26","AMMA06",77888.000,"cc",28320.438,6.00,2832.044,1,6,0.100,44401.000,0.200,26218.000,0.300,4614.000,0.500,1660.000,1.000,994.000,5.000,1.000
"07/02/06","20:03:32","AMMA06",76857.000,"cc",28337.270,6.00,2833.727,1,6,0.100,44106.000,0.200,25454.000,0.300,4588.000,0.500,1662.000,1.000,1047.000,5.000,0
"07/02/06","20:03:38","AMMA06",77600.000,"cc",28328.330,6.00,2832.833,1,6,0.100,44236.000,0.200,26061.000,0.300,4625.000,0.500,1626.000,1.000,1052.000,5.000,0
"07/02/06","20:03:44","AMMA06",77539.000,"cc",28309.453,6.00,2830.946,1,6,0.100,43945.000,0.200,26304.000,0.300,4582.000,0.500,1696.000,1.000,1011.000,5.000,1.000
"07/02/06","20:03:50","AMMA06",76599.000,"cc",28295.357,6.00,2829.536,1,6,0.100,43275.000,0.200,25978.000,0.300,4727.000,0.500,1649.000,1.000,969.000,5.000,1.000
"07/02/06","20:03:56","AMMA06",77305.000,"cc",28302.840,6.00,2830.284,1,6,0.100,44065.000,0.200,25782.000,0.300,4723.000,0.500,1726.000,1.000,1008.000,5.000,1.000
"07/02/06","20:04:02","AMMA06",76933.000,"cc",28347.445,6.00,2834.745,1,6,0.100,43695.000,0.200,25979.000,0.300,4624.000,0.500,1620.000,1.000,1014.000,5.000,1.000
"07/02/06","20:04:08","AMMA06",77712.000,"cc",28347.240,6.00,2834.724,1,6,0.100,43999.000,0.200,26271.000,0.300,4726.000,0.500,1675.000,1.000,1041.000,5.000,0
"07/02/06","20:04:14","AMMA06",77200.000,"cc",28265.299,6.00,2826.530,1,6,0.100,43698.000,0.200,26326.000,0.300,4532.000,0.500,1644.000,1.000,1000.000,5.000,0
"07/02/06","20:04:20","AMMA06",77049.000,"cc",28357.232,6.00,2835.723,1,6,0.100,43787.000,0.200,26138.000,0.300,4434.000,0.500,1653.000,1.000,1037.000,5.000,0
"07/02/06","20:04:26","AMMA06",77132.000,"cc",28337.049,6.00,2833.705,1,6,0.100,43843.000,0.200,25981.000,0.300,4638.000,0.500,1629.000,1.000,1041.000,5.000,0
"07/02/06","20:04:32","AMMA06",76851.000,"cc",28317.641,6.00,2831.764,1,6,0.100,43854.000,0.200,25834.000,0.300,4545.000,0.500,1603.000,1.000,1015.000,5.000,0
"07/02/06","20:04:38","AMMA06",76834.000,"cc",28312.459,6.00,2831.246,1,6,0.100,43819.000,0.200,25802.000,0.300,4450.000,0.500,1684.000,1.000,1078.000,5.000,1.000
"07/02/06","20:04:44","AMMA06",77172.000,"cc",28315.381,6.00,2831.538,1,6,0.100,43955.000,0.200,25846.000,0.300,4627.000,0.500,1687.000,1.000,1056.000,5.000,1.000
"07/02/06","20:04:50","AMMA06",76840.000,"cc",28338.916,6.00,2833.892,1,6,0.100,44033.000,0.200,25546.000,0.300,4566.000,0.500,1641.000,1.000,1053.000,5.000,1.000
"07/02/06","20:04:56","AMMA06",76897.000,"cc",28304.508,6.00,2830.451,1,6,0.100,44022.000,0.200,25680.000,0.300,4527.000,0.500,1640.000,1.000,1028.000,5.000,0
"07/02/06","20:05:02","AMMA06",76654.000,"cc",28294.711,6.00,2829.471,1,6,0.100,43920.000,0.200,25475.000,0.300,4611.000,0.500,1669.000,1.000,978.000,5.000,1.000
"07/02/06","20:05:08","AMMA06",77362.000,"cc",28310.088,6.00,2831.009,1,6,0.100,44398.000,0.200,25490.000,0.300,4613.000,0.500,1792.000,1.000,1068.000,5.000,1.000
"07/02/06","20:05:14","AMMA06",77168.000,"cc",28289.682,6.00,2828.968,1,6,0.100,44269.000,0.200,25711.000,0.300,4554.000,0.500,1629.000,1.000,1004.000,5.000,1.000
"07/02/06","20:05:20","AMMA06",76359.000,"cc",28348.311,6.00,2834.831,1,6,0.100,43880.000,0.200,25374.000,0.300,4423.000,0.500,1671.000,1.000,1011.000,5.000,0
"07/02/06","20:05:26","AMMA06",75903.000,"cc",28351.240,6.00,2835.124,1,6,0.100,43566.000,0.200,25187.000,0.300,4519.000,0.500,1679.000,1.000,951.000,5.000,1.000
"07/02/06","20:05:32","AMMA06",76515.000,"cc",28273.897,6.00,2827.390,1,6,0.100,43862.000,0.200,25584.000,0.300,4472.000,0.500,1619.000,1.000,978.000,5.000,0
"07/02/06","20:05:38","AMMA06",76730.000,"cc",28298.965,6.00,2829.897,1,6,0.100,43798.000,0.200,25630.000,0.300,4609.000,0.500,1666.000,1.000,1027.000,5.000,0
"07/02/06","20:05:44","AMMA06",76667.000,"cc",28341.172,6.00,2834.117,1,6,0.100,43834.000,0.200,25579.000,0.300,4470.000,0.500,1751.000,1.000,1033.000,5.000,0
"07/02/06","20:05:50","AMMA06",76040.000,"cc",28313.188,6.00,2831.319,1,6,0.100,43448.000,0.200,25475.000,0.300,4369.000,0.500,1671.000,1.000,1077.000,5.000,0
"07/02/06","20:05:56","AMMA06",76670.000,"cc",28300.701,6.00,2830.070,1,6,0.100,44215.000,0.200,25343.000,0.300,4359.000,0.500,1735.000,1.000,1018.000,5.000,0
"07/02/06","20:06:02","AMMA06",76514.000,"cc",28305.856,6.00,2830.586,1,6,0.100,43861.000,0.200,25366.000,0.300,4559.000,0.500,1697.000,1.000,1031.000,5.000,0
"07/02/06","20:06:08","AMMA06",76437.000,"cc",28312.018,6.00,2831.202,1,6,0.100,44006.000,0.200,25371.000,0.300,4400.000,0.500,1634.000,1.000,1024.000,5.000,2.000
"07/02/06","20:06:14","AMMA06",76809.000,"cc",28349.014,6.00,2834.902,1,6,0.100,44162.000,0.200,25558.000,0.300,4482.000,0.500,1612.000,1.000,992.000,5.000,3.000
"07/02/06","20:06:20","AMMA06",77026.000,"cc",28322.104,6.00,2832.210,1,6,0.100,43960.000,0.200,25909.000,0.300,4511.000,0.500,1564.000,1.000,1082.000,5.000,0
"07/02/06","20:06:26","AMMA06",77106.000,"cc",28294.889,6.00,2829.489,1,6,0.100,44371.000,0.200,25418.000,0.300,4541.000,0.500,1704.000,1.000,1071.000,5.000,1.000
"07/02/06","20:06:32","AMMA06",77473.000,"cc",28317.231,6.00,2831.723,1,6,0.100,44248.000,0.200,25994.000,0.300,4502.000,0.500,1694.000,1.000,1034.000,5.000,1.000
"07/02/06","20:06:38","AMMA06",77112.000,"cc",28285.955,6.00,2828.596,1,6,0.100,44146.000,0.200,25727.000,0.300,4534.000,0.500,1664.000,1.000,1041.000,5.000,0
"07/02/06","20:06:44","AMMA06",77053.000,"cc",28327.699,6.00,2832.770,1,6,0.100,44121.000,0.200,25754.000,0.300,4423.000,0.500,1724.000,1.000,1030.000,5.000,1.000
"07/02/06","20:06:50","AMMA06",77385.000,"cc",28342.994,6.00,2834.300,1,6,0.100,44399.000,0.200,25835.000,0.300,4481.000,0.500,1660.000,1.000,1010.000,5.000,0
"07/02/06","20:06:56","AMMA06",76790.000,"cc",28340.668,6.00,2834.067,1,6,0.100,44041.000,0.200,25582.000,0.300,4489.000,0.500,1678.000,1.000,998.000,5.000,2.000
"07/02/06","20:07:02","AMMA06",76435.000,"cc",28271.147,6.00,2827.115,1,6,0.100,44015.000,0.200,25525.000,0.300,4245.000,0.500,1643.000,1.000,1005.000,5.000,2.000
"07/02/06","20:07:08","AMMA06",77508.000,"cc",28279.990,6.00,2827.999,1,6,0.100,44283.000,0.200,26065.000,0.300,4525.000,0.500,1622.000,1.000,1011.000,5.000,2.000
"07/02/06","20:07:14","AMMA06",76641.000,"cc",28311.822,6.00,2831.182,1,6,0.100,44291.000,0.200,25273.000,0.300,4424.000,0.500,1676.000,1.000,976.000,5.000,1.000
"07/02/06","20:07:20","AMMA06",76571.000,"cc",28323.910,6.00,2832.391,1,6,0.100,44311.000,0.200,25223.000,0.300,4335.000,0.500,1614.000,1.000,1088.000,5.000,0
"07/02/06","20:07:26","AMMA06",76544.000,"cc",28315.498,6.00,2831.550,1,6,0.100,43848.000,0.200,25620.000,0.300,4425.000,0.500,1638.000,1.000,1012.000,5.000,1.000
"07/02/06","20:07:32","AMMA06",76949.000,"cc",28336.537,6.00,2833.654,1,6,0.100,44291.000,0.200,25543.000,0.300,4462.000,0.500,1630.000,1.000,1023.000,5.000,0
"07/02/06","20:07:38","AMMA06",76283.000,"cc",28363.076,6.00,2836.308,1,6,0.100,44083.000,0.200,25233.000,0.300,4317.000,0.500,1632.000,1.000,1015.000,5.000,3.000
"07/02/06","20:07:44","AMMA06",76269.000,"cc",28326.600,6.00,2832.660,1,6,0.100,44045.000,0.200,25283.000,0.300,4265.000,0.500,1663.000,1.000,1012.000,5.000,1.000
"07/02/06","20:07:50","AMMA06",76586.000,"cc",28278.565,6.00,2827.857,1,6,0.100,43953.000,0.200,25507.000,0.300,4443.000,0.500,1678.000,1.000,1005.000,5.000,0
"07/02/06","20:07:56","AMMA06",76453.000,"cc",28328.670,6.00,2832.867,1,6,0.100,44045.000,0.200,25295.000,0.300,4454.000,0.500,1678.000,1.000,980.000,5.000,1.000
"07/02/06","20:08:02","AMMA06",76194.000,"cc",28349.363,6.00,2834.937,1,6,0.100,44046.000,0.200,25089.000,0.300,4365.000,0.500,1692.000,1.000,1001.000,5.000,1.000
"07/02/06","20:08:08","AMMA06",76832.000,"cc",28258.383,6.00,2825.838,1,6,0.100,44805.000,0.200,25171.000,0.300,4263.000,0.500,1603.000,1.000,989.000,5.000,1.000
"07/02/06","20:08:14","AMMA06",77413.000,"cc",28329.721,6.00,2832.972,1,6,0.100,44586.000,0.200,25794.000,0.300,4404.000,0.500,1611.000,1.000,1018.000,5.000,0
"07/02/06","20:08:20","AMMA06",78126.000,"cc",28317.266,6.00,2831.727,1,6,0.100,45041.000,0.200,25870.000,0.300,4607.000,0.500,1614.000,1.000,994.000,5.000,0
"07/02/06","20:08:26","AMMA06",78141.000,"cc",28288.066,6.00,2828.807,1,6,0.100,44816.000,0.200,26274.000,0.300,4482.000,0.500,1584.000,1.000,985.000,5.000,0
"07/02/06","20:08:32","AMMA06",77690.000,"cc",28337.400,6.00,2833.740,1,6,0.100,44675.000,0.200,25945.000,0.300,4418.000,0.500,1682.000,1.000,969.000,5.000,1.000
"07/02/06","20:08:38","AMMA06",77721.000,"cc",28312.373,6.00,2831.238,1,6,0.100,44508.000,0.200,25983.000,0.300,4489.000,0.500,1690.000,1.000,1050.000,5.000,1.000
"07/02/06","20:08:44","AMMA06",76343.000,"cc",28346.150,6.00,2834.615,1,6,0.100,44216.000,0.200,25086.000,0.300,4342.000,0.500,1675.000,1.000,1024.000,5.000,0
"07/02/06","20:08:50","AMMA06",76283.000,"cc",28334.654,6.00,2833.466,1,6,0.100,44159.000,0.200,25163.000,0.300,4280.000,0.500,1644.000,1.000,1037.000,5.000,0
"07/02/06","20:08:56","AMMA06",76725.000,"cc",28287.842,6.00,2828.784,1,6,0.100,44040.000,0.200,25512.000,0.300,4400.000,0.500,1733.000,1.000,1040.000,5.000,0
"07/02/06","20:09:02","AMMA06",76643.000,"cc",28331.404,6.00,2833.141,1,6,0.100,44319.000,0.200,25125.000,0.300,4493.000,0.500,1657.000,1.000,1049.000,5.000,0
"07/02/06","20:09:08","AMMA06",76631.000,"cc",28319.918,6.00,2831.992,1,6,0.100,44471.000,0.200,25142.000,0.300,4292.000,0.500,1757.000,1.000,969.000,5.000,0
"07/02/06","20:09:14","AMMA06",75977.000,"cc",28304.897,6.00,2830.490,1,6,0.100,44021.000,0.200,24945.000,0.300,4383.000,0.500,1631.000,1.000,996.000,5.000,1.000
"07/02/06","20:09:20","AMMA06",76380.000,"cc",28298.363,6.00,2829.836,1,6,0.100,44282.000,0.200,25009.000,0.300,4407.000,0.500,1635.000,1.000,1047.000,5.000,0
"07/02/06","20:09:26","AMMA06",77098.000,"cc",28309.820,6.00,2830.982,1,6,0.100,44881.000,0.200,25259.000,0.300,4364.000,0.500,1637.000,1.000,957.000,5.000,0
"07/02/06","20:09:32","AMMA06",79200.000,"cc",28346.738,6.00,2834.674,1,6,0.100,46164.000,0.200,25642.000,0.300,4698.000,0.500,1689.000,1.000,1005.000,5.000,2.000
"07/02/06","20:09:38","AMMA06",77489.000,"cc",28337.865,6.00,2833.787,1,6,0.100,45108.000,0.200,25337.000,0.300,4476.000,0.500,1587.000,1.000,979.000,5.000,2.000
"07/02/06","20:09:44","AMMA06",76814.000,"cc",28367.469,6.00,2836.747,1,6,0.100,44186.000,0.200,25469.000,0.300,4465.000,0.500,1655.000,1.000,1036.000,5.000,3.000
"07/02/06","20:09:50","AMMA06",76522.000,"cc",28276.051,6.00,2827.605,1,6,0.100,43810.000,0.200,25587.000,0.300,4424.000,0.500,1657.000,1.000,1044.000,5.000,0
"07/02/06","20:09:56","AMMA06",76259.000,"cc",28312.633,6.00,2831.263,1,6,0.100,43799.000,0.200,25445.000,0.300,4417.000,0.500,1608.000,1.000,990.000,5.000,0
"07/02/06","20:10:02","AMMA06",76290.000,"cc",28329.615,6.00,2832.962,1,6,0.100,44183.000,0.200,25038.000,0.300,4413.000,0.500,1657.000,1.000,996.000,5.000,3.000
"07/02/06","20:10:08","AMMA06",76412.000,"cc",28286.070,6.00,2828.607,1,6,0.100,43915.000,0.200,25327.000,0.300,4479.000,0.500,1651.000,1.000,1040.000,5.000,0
"07/02/06","20:10:14","AMMA06",76609.000,"cc",28367.576,6.00,2836.758,1,6,0.100,44222.000,0.200,25294.000,0.300,4453.000,0.500,1629.000,1.000,1010.000,5.000,1.000
"07/02/06","20:10:20","AMMA06",76017.000,"cc",28293.754,6.00,2829.376,1,6,0.100,43876.000,0.200,25103.000,0.300,4348.000,0.500,1685.000,1.000,1005.000,5.000,0
"07/02/06","20:10:26","AMMA06",76742.000,"cc",28311.963,6.00,2831.197,1,6,0.100,44250.000,0.200,25231.000,0.300,4585.000,0.500,1671.000,1.000,1005.000,5.000,0
"07/02/06","20:10:32","AMMA06",76717.000,"cc",28313.773,6.00,2831.377,1,6,0.100,44037.000,0.200,25459.000,0.300,4569.000,0.500,1630.000,1.000,1022.000,5.000,0
"07/02/06","20:10:38","AMMA06",76597.000,"cc",28306.693,6.00,2830.669,1,6,0.100,43854.000,0.200,25669.000,0.300,4490.000,0.500,1617.000,1.000,967.000,5.000,0
"07/02/06","20:10:44","AMMA06",77269.000,"cc",28292.279,6.00,2829.228,1,6,0.100,44534.000,0.200,25666.000,0.300,4446.000,0.500,1640.000,1.000,983.000,5.000,0
"07/02/06","20:10:50","AMMA06",76536.000,"cc",28363.766,6.00,2836.377,1,6,0.100,44136.000,0.200,25355.000,0.300,4378.000,0.500,1650.000,1.000,1017.000,5.000,0
"07/02/06","20:10:56","AMMA06",76475.000,"cc",28315.584,6.00,2831.559,1,6,0.100,44287.000,0.200,25104.000,0.300,4386.000,0.500,1667.000,1.000,1031.000,5.000,0
"07/02/06","20:11:02","AMMA06",76307.000,"cc",28258.301,6.00,2825.830,1,6,0.100,43998.000,0.200,25057.000,0.300,4470.000,0.500,1724.000,1.000,1058.000,5.000,0
"07/02/06","20:11:08","AMMA06",76546.000,"cc",28288.229,6.00,2828.823,1,6,0.100,44387.000,0.200,25034.000,0.300,4394.000,0.500,1696.000,1.000,1035.000,5.000,0
"07/02/06","20:11:14","AMMA06",76862.000,"cc",28346.551,6.00,2834.655,1,6,0.100,44735.000,0.200,24954.000,0.300,4482.000,0.500,1663.000,1.000,1026.000,5.000,2.000
"07/02/06","20:11:20","AMMA06",76785.000,"cc",28330.215,6.00,2833.022,1,6,0.100,44709.000,0.200,24940.000,0.300,4440.000,0.500,1643.000,1.000,1052.000,5.000,1.000
"07/02/06","20:11:26","AMMA06",76542.000,"cc",28356.451,6.00,2835.645,1,6,0.100,44198.000,0.200,25052.000,0.300,4547.000,0.500,1658.000,1.000,1086.000,5.000,1.000
"07/02/06","20:11:32","AMMA06",77134.000,"cc",28307.459,6.00,2830.746,1,6,0.100,44898.000,0.200,25069.000,0.300,4421.000,0.500,1676.000,1.000,1070.000,5.000,0
"07/02/06","20:11:38","AMMA06",77255.000,"cc",28331.127,6.00,2833.113,1,6,0.100,44793.000,0.200,25241.000,0.300,4515.000,0.500,1688.000,1.000,1018.000,5.000,0
"07/02/06","20:11:44","AMMA06",76974.000,"cc",28312.809,6.00,2831.281,1,6,0.100,44811.000,0.200,25033.000,0.300,4418.000,0.500,1712.000,1.000,999.000,5.000,1.000
"07/02/06","20:11:50","AMMA06",76765.000,"cc",28294.506,6.00,2829.451,1,6,0.100,44421.000,0.200,25109.000,0.300,4501.000,0.500,1739.000,1.000,995.000,5.000,0
"07/02/06","20:11:56","AMMA06",76908.000,"cc",28324.100,6.00,2832.410,1,6,0.100,44428.000,0.200,25266.000,0.300,4457.000,0.500,1714.000,1.000,1043.000,5.000,0
"07/02/06","20:12:02","AMMA06",76779.000,"cc",28349.098,6.00,2834.910,1,6,0.100,44248.000,0.200,25294.000,0.300,4498.000,0.500,1719.000,1.000,1019.000,5.000,1.000
"07/02/06","20:12:08","AMMA06",76911.000,"cc",28326.432,6.00,2832.643,1,6,0.100,44260.000,0.200,25319.000,0.300,4595.000,0.500,1683.000,1.000,1054.000,5.000,0
"07/02/06","20:12:14","AMMA06",76812.000,"cc",28320.908,6.00,2832.091,1,6,0.100,44302.000,0.200,25125.000,0.300,4734.000,0.500,1610.000,1.000,1041.000,5.000,0
"07/02/06","20:12:20","AMMA06",77092.000,"cc",28288.748,6.00,2828.875,1,6,0.100,44308.000,0.200,25382.000,0.300,4630.000,0.500,1721.000,1.000,1050.000,5.000,1.000
"07/02/06","20:12:26","AMMA06",76930.000,"cc",28282.127,6.00,2828.213,1,6,0.100,44059.000,0.200,25532.000,0.300,4619.000,0.500,1634.000,1.000,1086.000,5.000,0
"07/02/06","20:12:32","AMMA06",76770.000,"cc",28320.582,6.00,2832.058,1,6,0.100,44079.000,0.200,25327.000,0.300,4612.000,0.500,1689.000,1.000,1062.000,5.000,1.000
"07/02/06","20:12:38","AMMA06",77276.000,"cc",28290.840,6.00,2829.084,1,6,0.100,44375.000,0.200,25403.000,0.300,4737.000,0.500,1704.000,1.000,1057.000,5.000,0
"07/02/06","20:12:44","AMMA06",77378.000,"cc",28327.272,6.00,2832.727,1,6,0.100,44264.000,0.200,25543.000,0.300,4824.000,0.500,1659.000,1.000,1087.000,5.000,1.000
"07/02/06","20:12:50","AMMA06",77251.000,"cc",28326.404,6.00,2832.641,1,6,0.100,44470.000,0.200,25403.000,0.300,4590.000,0.500,1724.000,1.000,1064.000,5.000,0
"07/02/06","20:12:56","AMMA06",77407.000,"cc",28333.887,6.00,2833.389,1,6,0.100,44650.000,0.200,25377.000,0.300,4641.000,0.500,1687.000,1.000,1051.000,5.000,1.000
"07/02/06","20:13:02","AMMA06",77068.000,"cc",28339.408,6.00,2833.941,1,6,0.100,44243.000,0.200,25323.000,0.300,4734.000,0.500,1674.000,1.000,1094.000,5.000,0
"07/02/06","20:13:08","AMMA06",77332.000,"cc",28344.705,6.00,2834.471,1,6,0.100,44615.000,0.200,25258.000,0.300,4730.000,0.500,1671.000,1.000,1058.000,5.000,0
"07/02/06","20:13:14","AMMA06",76417.000,"cc",28280.496,6.00,2828.050,1,6,0.100,43994.000,0.200,25108.000,0.300,4466.000,0.500,1776.000,1.000,1073.000,5.000,0
"07/02/06","20:13:20","AMMA06",76886.000,"cc",28278.223,6.00,2827.823,1,6,0.100,44110.000,0.200,25287.000,0.300,4740.000,0.500,1725.000,1.000,1024.000,5.000,0
"07/02/06","20:13:26","AMMA06",77281.000,"cc",28317.783,6.00,2831.779,1,6,0.100,44577.000,0.200,25272.000,0.300,4652.000,0.500,1718.000,1.000,1062.000,5.000,0
"07/02/06","20:13:32","AMMA06",76338.000,"cc",28341.531,6.00,2834.153,1,6,0.100,44134.000,0.200,24850.000,0.300,4540.000,0.500,1792.000,1.000,1021.000,5.000,1.000
"07/02/06","20:13:38","AMMA06",76890.000,"cc",28267.254,6.00,2826.726,1,6,0.100,44668.000,0.200,24809.000,0.300,4570.000,0.500,1725.000,1.000,1115.000,5.000,3.000
"07/02/06","20:13:44","AMMA06",77120.000,"cc",28327.563,6.00,2832.756,1,6,0.100,44942.000,0.200,24952.000,0.300,4439.000,0.500,1744.000,1.000,1043.000,5.000,0
"07/02/06","20:13:50","AMMA06",76847.000,"cc",28326.147,6.00,2832.615,1,6,0.100,44843.000,0.200,24706.000,0.300,4522.000,0.500,1731.000,1.000,1044.000,5.000,1.000
"07/02/06","20:13:56","AMMA06",77362.000,"cc",28320.223,6.00,2832.023,1,6,0.100,45108.000,0.200,24935.000,0.300,4532.000,0.500,1718.000,1.000,1068.000,5.000,1.000